Weather in Chapygi

Russia / Kostroma Oblast     57°42′00″N   43°13′02″E
temp.,
°C
wind,
m/s
gust,
m/s
humid.,
%
clouds,
%
prec.,
mm/h
press.,
hPa
HPBL,
m
24 july, sat
sat2400:00+10nw39985 0.0 1005223
03:00+9nnw2898100 0.0 1007190
06:00+10nnw2794100 0.0 1009278
09:00+15n35525 0.0 1011953
12:00+18nnw453682 0.0 10112481
15:00+20nw453069 0.0 10122741
18:00+18nnw453895 0.0 10141367
21:00+10n22585 0.0 101612
25 july, sun
sun2500:00+9s115632 0.0 101711
03:00+8wsw226085 0.0 101932
06:00+12wsw145589 0.0 1020146
09:00+19wsw353986 0.0 10191172
12:00+19wsw454389 0.0 10201730
15:00+21wsw4640100 0.0 10192296
18:00+21wsw2444100 0.0 1020718
21:00+14nnw11626 0.0 102113
26 july, mon
mon2600:00+12ne117296 0.0 102211
03:00+14wnw1165100 0.0 102210
06:00+15w236683 0.0 1023105
09:00+19w244779 0.0 1023453
12:00+24wsw453194 0.0 10222694
15:00+22wsw244999 0.0 1021320
18:00+21wsw245324 0.0 1021340
21:00+16w247119 0.0 102163
27 july, tue
tue2700:00+16wsw256897 0.0 102187
03:00+14wnw267613 0.0 1021104
06:00+16wnw247167 0.0 1021112
09:00+23wnw354645 0.0 1021703
12:00+26wnw473750 0.0 10202468
15:00+27nnw363856 0.0 10192418
18:00+18w228614 2.7 101948
21:00+17wnw2790100 3.1 1019157
28 july, wed
wed2800:00+14wsw22933 0.1 101918
03:00+13wnw11945 0.1 101911
06:00+16sw13895 0.0 101891
09:00+22sw245728 0.0 1017537
12:00+28w36375 0.0 10152130
15:00+26w2647100 0.0 1013363
18:00+26wsw36460 0.0 1012651
21:00+20w266530 0.0 1012150